Cosmos 2016 Rocket - Orbit

View from above orbital plane
View from above orbital plane
View from above satellite
View from above satellite

Ground track
Ground track

The orbit data is extracted from the following two-line orbital elements,

1 19922U 89028B   13141.99576338  .00000107  00000-0  92443-4 0  8421
2 19922 082.9600 089.8887 0038018 091.4925 340.0508 13.77057196212548
Epoch (UTC): 21 May 2013 23:53:53
Eccentricity: 0.0038018
inclination: 82.9600°
perigee height: 946 km
apogee height: 1002 km
right ascension of ascending node: 89.8887°
argument of perigee: 91.4925°
revolutions per day: 13.77057196
mean anomaly at epoch: 340.0508°
orbit number at epoch: 21254

The dashed part of the orbit path shows where the satellite is in the earth's shadow,  

Developed and maintained by Chris Peat, Heavens-Above GmbH. Please read the updated FAQ before sending e-mail. Imprint. DLR